Theta_e
300 301 302 304 304 304 304 305 306 306 305 305 305 307 308 309 311 312 313 313 313 313 314 314 313 313 313 312 312 312 311 310 310 309 309 309 309 310 311 311 312 312 313 313 313 313 314 315 315 314 313 312 309 308 307 307 309 310 310 309 309 309 309 309 308 307 307 307 307
301 302 303 305 305 305 305 305 305 306 307 308 308 309 310 311 311 311 311 312 312 312 312 313 312 312 312 312 311 311 310 310 309 309 308 308 308 309 309 309 309 310 311 312 312 313 313 313 313 312 311 310 309 307 307 307 308 308 307 305 305 305 305 305 304 304 304 304 304
301 301 302 302 302 303 304 304 304 303 304 306 307 308 309 310 310 310 310 310 310 310 311 311 311 311 311 311 311 311 310 310 309 308 308 308 308 308 308 307 308 308 309 310 310 311 311 311 311 310 309 308 307 306 305 305 306 305 304 303 304 304 304 303 302 302 302 302 301
300 300 301 300 300 300 301 302 302 302 303 305 305 306 308 308 308 308 308 308 308 308 309 309 309 310 310 310 310 310 310 310 309 308 308 308 307 307 307 307 307 307 307 307 308 308 308 308 308 307 306 305 305 304 304 304 304 304 303 302 302 302 302 301 301 301 300 299 299
300 300 300 300 300 300 300 300 302 302 304 304 305 306 307 308 308 308 308 308 307 308 308 308 308 308 308 308 308 308 308 308 308 307 307 307 307 307 307 307 307 307 307 307 307 307 307 307 306 305 305 304 303 303 303 303 302 302 302 301 301 301 300 300 299 299 299 298 297
299 299 300 300 300 300 301 302 302 303 303 303 304 305 306 307 307 307 307 306 306 307 307 307 307 307 307 307 307 306 306 306 306 306 306 306 305 306 306 306 306 306 307 307 308 308 307 306 305 304 303 302 302 302 302 302 301 301 300 299 299 298 298 298 297 297 296 295 294
299 299 299 300 300 301 301 301 302 302 302 302 302 303 304 305 305 305 305 306 306 306 306 307 306 306 306 306 306 306 305 305 305 305 304 304 304 304 304 304 304 304 305 305 306 306 306 305 304 303 302 302 301 300 301 301 300 299 298 297 297 296 296 295 295 295 294 293 293
299 299 299 300 300 300 300 300 301 301 301 302 302 302 303 303 303 304 304 304 304 305 305 305 305 305 305 305 305 305 304 304 304 304 304 303 303 303 303 303 302 303 303 303 304 304 304 304 302 302 301 300 299 299 299 299 298 298 296 295 295 295 294 294 294 293 293 292 291
298 298 299 299 299 299 300 300 300 300 300 300 301 301 301 302 302 302 302 302 302 302 303 304 304 304 304 304 304 304 304 303 303 303 303 302 302 302 302 302 301 301 301 302 302 302 301 301 300 300 299 299 298 298 298 298 297 296 295 294 294 294 294 293 293 292 292 291 291
297 297 298 298 298 299 299 299 299 299 299 299 299 300 300 300 300 300 300 300 301 301 301 302 302 302 302 302 302 302 302 302 302 302 302 302 301 301 301 301 300 300 300 301 301 301 300 300 299 298 298 298 297 297 297 297 296 295 294 294 293 293 293 293 292 292 291 291 290
296 296 297 297 297 297 298 298 299 299 298 298 298 298 298 298 298 299 299 299 299 299 299 300 300 301 301 301 301 301 301 301 301 301 301 300 300 300 300 300 299 299 299 299 300 300 299 298 298 297 297 297 296 296 296 295 295 294 294 293 293 293 292 292 291 291 291 290 289
296 296 296 296 296 296 297 298 298 298 297 297 297 297 297 297 297 297 297 297 298 298 298 298 299 299 299 300 300 300 300 300 300 300 299 299 299 299 299 298 298 298 298 298 298 298 298 297 297 296 296 296 296 295 295 295 294 293 293 293 292 292 291 290 290 290 290 289 289
295 295 295 296 295 296 297 297 298 298 297 297 296 296 296 296 296 296 296 296 297 298 298 298 298 298 298 299 299 299 299 298 298 298 298 297 298 297 297 297 297 297 297 297 297 297 297 296 296 295 295 295 295 295 294 294 293 293 292 292 291 291 290 289 289 289 289 289 289
293 294 295 295 295 296 297 297 297 298 297 297 296 296 296 297 297 297 296 296 296 297 297 297 298 298 298 297 297 297 297 297 296 296 296 296 296 296 296 296 296 296 296 296 296 296 296 295 295 294 294 294 294 294 293 293 293 292 291 290 290 289 289 288 288 288 288 288 288
292 293 293 293 294 295 297 297 297 297 297 297 297 297 298 298 298 298 297 296 296 296 296 296 296 296 297 296 296 296 296 296 295 295 295 295 295 295 295 295 295 295 295 295 295 295 294 294 294 294 293 293 293 292 292 292 292 291 290 290 289 288 288 288 288 287 287 288 288
292 292 292 292 294 295 296 296 297 297 296 297 297 297 297 297 298 298 298 297 296 296 296 295 295 296 296 296 295 295 295 294 294 294 294 294 294 294 294 294 294 294 294 294 293 293 293 293 293 293 292 292 292 291 291 291 291 290 290 289 289 288 288 287 287 287 287 287 288
291 291 292 292 294 294 295 296 296 296 296 296 297 297 297 297 297 297 297 296 296 295 295 295 295 295 295 295 295 294 293 293 293 293 293 293 293 293 293 293 293 293 293 293 292 292 292 292 292 292 292 291 291 291 291 290 290 290 289 289 288 288 288 288 287 287 287 287 287
291 292 292 292 293 294 294 294 295 295 295 296 296 296 296 296 296 296 296 296 296 295 295 295 295 295 294 294 294 294 294 293 293 293 293 293 293 292 292 293 293 293 292 292 292 292 292 291 292 291 291 291 291 290 290 290 290 289 289 289 288 288 288 288 288 288 287 286 285
291 291 292 292 293 293 294 294 294 295 295 295 296 296 296 296 295 295 295 295 295 295 294 294 294 294 294 294 294 294 294 293 293 293 292 292 292 292 292 292 292 292 291 291 291 291 291 291 291 291 291 290 290 290 290 289 289 289 289 289 289 288 288 288 288 288 287 286 284
290 291 291 292 292 292 293 293 294 294 295 295 295 295 295 295 295 295 295 295 295 295 294 294 294 294 293 293 293 293 293 293 292 292 292 292 292 292 291 291 291 291 291 290 290 290 290 290 290 290 290 290 289 289 289 289 289 289 289 289 289 289 289 289 289 289 288 287 285
289 290 291 291 292 292 293 293 294 294 294 295 294 294 294 295 294 294 294 294 294 294 294 294 293 293 293 293 293 293 293 293 292 292 291 291 291 291 291 291 290 290 290 290 290 289 289 289 289 289 289 289 289 289 288 288 288 288 288 288 288 288 288 289 289 289 289 288 287
290 291 292 291 291 292 292 292 293 294 294 294 294 294 294 294 294 294 294 294 294 294 293 293 293 293 293 293 292 292 292 292 292 292 291 291 291 290 290 290 289 289 289 289 288 289 288 288 288 288 288 288 288 288 288 288 287 287 287 287 287 287 287 288 288 288 288 289 289
292 292 292 292 292 292 292 292 293 293 294 293 294 294 293 293 294 294 294 294 293 293 293 293 293 293 293 293 292 292 292 292 291 291 291 290 290 289 289 287 287 287 288 288 287 287 287 287 287 287 287 287 287 287 287 287 287 287 287 287 286 286 286 286 287 287 287 287 288
293 293 293 293 292 292 292 292 293 293 293 293 293 293 293 293 293 293 293 293 293 293 293 293 293 293 293 293 292 292 291 291 291 290 290 289 289 288 287 286 286 287 288 288 288 288 288 287 287 286 286 286 287 287 287 287 286 286 286 286 286 286 286 285 285 285 285 285 285
292 292 293 293 293 292 292 293 293 293 293 293 293 293 293 293 293 293 293 292 292 292 292 292 292 292 292 292 292 292 291 291 291 290 290 290 289 289 289 289 289 289 290 290 291 290 290 288 287 287 286 286 286 286 286 286 286 286 286 286 286 285 285 284 284 283 283 283 283
292 292 292 293 292 292 292 293 293 293 293 293 293 293 292 293 293 293 292 292 292 292 292 292 292 293 293 293 292 292 292 292 292 292 291 291 291 291 292 292 292 292 292 292 292 292 291 290 289 288 286 286 286 286 286 286 286 286 286 286 285 285 284 282 282 281 281 280 279
293 293 293 293 293 293 292 293 293 293 293 292 292 292 292 293 293 293 293 292 293 293 293 293 293 293 293 293 293 293 293 293 293 293 293 293 293 292 292 293 293 293 293 293 293 293 292 291 290 288 286 283 283 284 285 285 285 285 284 284 282 281 279 278 277 277 277 276 276
293 293 293 293 293 292 292 292 292 292 292 292 292 293 293 293 293 292 292 292 292 292 292 292 293 293 293 292 292 292 292 293 293 293 293 293 293 292 292 292 293 293 293 294 294 293 292 291 291 289 288 285 284 284 285 284 284 283 283 281 279 277 277 277 276 277 277 278 277
293 293 293 292 292 292 292 292 292 292 292 292 292 293 292 292 292 292 291 291 291 291 291 291 292 292 292 292 292 292 292 292 292 292 292 292 292 292 292 292 293 294 294 294 294 293 292 292 291 290 289 287 285 284 283 282 282 282 281 278 277 276 275 276 276 277 279 280 279
293 292 292 292 292 292 292 292 292 292 292 292 292 292 291 291 291 291 291 290 290 290 291 291 291 291 291 291 291 291 291 291 292 292 291 291 292 292 292 292 293 293 294 294 294 293 292 292 291 290 289 287 282 278 276 276 276 276 277 276 275 274 275 276 277 277 278 277 277
292 292 292 292 292 292 292 292 292 292 292 291 291 291 290 290 290 290 290 290 290 291 291 291 290 290 290 291 291 290 290 291 291 291 291 291 291 291 291 292 292 293 294 294 293 293 292 291 290 289 287 286 281 277 274 274 273 273 273 274 274 274 273 274 273 273 274 274 274
292 292 292 292 292 292 292 292 292 291 291 290 290 290 289 289 289 289 290 290 290 290 290 290 289 289 290 290 290 290 290 290 290 290 290 290 290 290 291 291 292 292 293 294 293 292 291 290 289 288 287 285 280 275 272 272 272 272 271 271 271 271 271 271 271 271 271 271 271
292 292 292 291 291 292 292 292 291 291 290 290 289 289 289 289 289 289 289 289 289 289 289 289 289 289 289 289 289 289 289 289 290 290 290 290 290 290 290 291 291 292 293 293 292 291 290 290 288 288 286 284 278 273 270 271 271 271 270 269 269 268 268 268 268 268 268 268 268
292 292 292 291 292 291 291 291 291 290 290 289 289 288 288 288 288 288 288 289 288 288 288 287 287 288 288 289 288 288 289 289 288 288 289 289 289 289 290 290 291 292 292 292 291 291 290 289 288 287 285 283 276 272 270 270 270 270 269 269 268 268 267 267 267 267 267 267 267
292 291 291 291 291 291 291 290 290 289 289 288 288 288 288 288 287 288 288 288 288 287 287 287 287 287 287 287 287 287 287 287 286 286 286 286 287 287 288 288 289 290 291 291 291 290 289 288 287 286 284 280 273 270 270 270 270 269 269 269 269 269 268 267 267 267 267 267 267
291 291 291 291 291 290 290 290 289 289 288 288 287 287 287 287 287 287 288 288 287 286 286 286 286 286 286 286 286 286 286 284 283 282 282 282 281 281 281 281 283 287 290 290 290 289 288 288 287 285 282 277 272 270 270 270 270 269 269 270 270 269 268 268 268 267 267 267 268
291 291 291 290 290 290 289 289 289 288 287 287 287 287 286 286 286 286 287 287 286 285 285 285 285 285 284 284 283 282 281 279 278 277 276 277 276 275 275 276 277 282 287 289 289 288 288 287 287 285 281 274 271 270 270 270 270 270 269 269 269 269 268 267 268 268 268 269 271
291 290 290 290 290 289 289 289 288 287 287 286 286 286 286 285 285 286 286 286 285 285 285 284 284 283 282 281 279 277 275 273 274 274 273 273 273 273 274 275 275 279 285 289 289 288 288 288 287 285 280 274 271 271 271 271 270 270 270 269 269 269 268 267 267 268 269 271 280
290 290 290 289 289 289 288 288 287 287 286 286 285 285 285 285 285 285 286 286 284 284 284 283 283 282 281 280 276 273 273 274 275 274 272 271 274 276 276 274 274 277 283 288 289 288 288 288 287 286 282 275 272 271 271 271 270 270 269 269 269 270 269 268 267 268 269 272 282
289 289 289 288 288 288 287 287 286 286 285 285 285 285 285 285 285 285 285 285 284 284 283 283 282 281 280 278 274 272 272 272 273 273 274 274 277 279 279 274 272 274 278 286 289 289 288 288 287 286 282 275 271 270 271 271 271 271 270 269 269 270 270 269 268 268 269 270 275
288 288 287 287 287 286 286 286 285 285 285 285 285 285 285 285 285 284 284 284 284 284 283 282 280 279 278 277 274 272 271 271 271 272 273 274 274 276 276 273 271 271 274 282 288 289 288 288 288 286 282 275 271 270 271 272 272 272 271 269 268 268 269 270 269 269 269 269 269
Wind_Speed
4 3 3 2 2 2 2 2 2 2 2 2 2 2 2 2 3 3 3 3 3 3 3 3 3 3 4 5 5 6 6 6 6 7 7 7 6 5 4 4 4 5 4 4 4 4 3 2 2 2 2 3 3 3 3 2 2 3 3 3 2 2 3 4 3 4 4 4 3
5 4 4 4 3 3 3 3 3 3 3 3 3 2 2 3 3 3 3 4 3 3 3 3 3 4 5 6 6 6 6 7 7 8 7 7 6 5 5 5 5 5 5 5 5 4 4 3 3 3 3 3 3 3 3 3 3 4 5 5 3 3 3 4 4 5 5 5 4
5 5 4 4 4 3 3 3 3 3 3 3 3 3 3 3 4 4 4 4 4 4 3 3 4 5 6 6 6 6 7 7 8 8 7 6 6 6 6 5 6 6 6 5 5 5 5 5 4 4 4 3 4 4 3 3 4 5 5 5 3 3 3 4 4 4 4 4 5
5 5 5 5 5 5 4 3 3 4 4 3 3 3 4 4 4 4 4 4 4 4 4 4 4 5 5 6 7 7 7 8 8 8 7 7 7 7 7 7 7 7 8 8 7 7 7 7 5 5 4 5 5 4 4 3 5 5 4 4 3 4 4 4 4 4 4 4 5
6 5 5 5 5 5 4 4 4 4 4 3 3 3 4 4 4 3 4 4 5 5 5 5 5 5 5 6 7 8 8 9 8 7 7 7 7 7 7 8 8 9 8 8 7 7 8 8 6 5 5 5 4 4 4 4 5 5 5 4 4 4 4 4 4 4 4 5 4
5 5 5 5 5 5 5 5 5 5 4 4 4 4 4 4 4 4 5 5 5 5 6 6 6 6 6 7 7 8 8 8 7 7 7 7 7 8 9 9 9 9 8 8 7 8 8 8 6 5 5 5 5 4 4 5 6 6 6 5 5 4 4 5 4 4 5 6 6
6 6 6 6 6 6 5 5 5 5 5 5 6 6 6 5 5 6 6 5 5 5 5 5 6 6 6 6 7 7 8 7 7 8 8 7 8 8 9 9 10 9 9 8 8 8 7 7 5 5 5 5 4 4 5 5 6 6 6 6 5 4 4 5 4 4 6 8 7
6 6 7 6 6 6 6 6 5 5 5 6 7 7 7 6 7 6 6 5 5 5 5 5 6 6 6 6 7 7 7 8 7 7 7 7 8 9 9 9 9 9 9 9 8 7 7 6 5 5 5 5 4 4 5 7 7 8 7 7 5 5 4 4 4 5 6 8 8
6 6 6 6 7 7 7 7 7 7 7 7 7 7 7 7 7 6 6 5 5 5 5 5 6 6 7 7 7 7 7 7 8 8 8 8 8 8 8 8 9 9 9 8 8 8 7 6 5 5 5 5 4 5 6 8 9 9 8 7 6 5 5 5 6 6 7 7 8
6 6 6 6 6 7 7 7 8 8 9 9 8 8 7 7 7 6 5 5 5 5 6 5 6 7 8 8 8 7 7 7 7 8 8 8 8 8 8 8 9 9 8 8 7 7 7 6 6 6 6 6 6 7 7 8 9 9 8 6 6 6 7 6 7 7 7 7 8
6 6 6 5 5 6 6 7 8 8 8 8 8 8 7 7 7 6 5 5 6 7 7 6 7 7 8 7 7 7 7 7 7 7 8 8 9 9 9 9 9 9 8 8 7 6 6 6 7 7 7 7 7 7 8 8 9 9 8 6 7 7 8 8 7 6 6 7 8
6 6 5 5 5 5 6 7 7 7 8 8 7 7 7 7 6 6 5 6 7 7 7 7 7 7 7 6 7 7 7 7 7 8 8 8 9 9 9 9 9 9 9 8 7 6 6 6 7 8 8 7 6 6 7 8 8 8 8 7 7 8 8 8 7 6 6 6 7
5 5 5 5 5 6 6 7 7 6 7 7 6 6 6 5 5 5 5 6 7 7 6 6 7 7 7 6 6 6 6 7 7 7 7 8 8 8 8 8 8 8 8 7 7 6 6 7 8 8 8 8 6 6 7 7 8 7 7 7 8 8 8 8 7 6 6 6 6
5 5 5 5 5 6 6 6 6 6 6 6 5 5 4 4 5 5 5 6 6 6 6 6 6 7 6 6 6 6 7 7 7 8 8 8 8 8 8 8 8 8 7 6 7 7 7 7 7 8 8 8 7 7 7 7 7 7 7 8 8 8 8 7 6 6 6 6 6
6 5 5 4 5 5 6 6 5 5 5 5 5 4 4 4 5 5 5 6 5 5 5 5 6 6 7 7 7 7 7 7 7 8 8 8 8 8 8 8 8 7 7 6 7 7 8 7 7 7 8 8 8 8 8 8 8 8 8 8 8 8 7 6 6 5 5 6 6
6 5 4 4 5 5 6 5 4 4 4 4 4 4 4 4 4 5 5 5 5 5 5 6 5 6 6 7 7 7 7 7 7 7 8 8 8 8 8 8 7 7 7 7 7 7 7 7 7 7 8 8 8 8 8 8 8 8 8 8 8 7 7 6 5 5 4 5 5
6 5 5 5 5 6 5 4 4 4 4 4 4 4 4 4 4 4 5 5 5 5 6 6 5 5 6 6 6 6 6 6 7 7 7 8 8 8 7 7 7 7 7 8 8 8 8 7 7 8 8 8 8 8 9 9 9 9 8 8 7 7 7 6 5 4 4 4 5
6 5 5 5 6 6 5 4 4 4 4 4 4 4 4 4 4 4 5 5 5 6 6 6 6 6 6 6 6 6 6 6 7 7 7 7 7 8 7 7 7 7 7 8 8 8 8 8 8 8 8 8 8 8 9 9 8 8 8 8 7 7 6 6 5 4 4 4 4
5 5 5 5 5 5 5 4 4 4 4 4 4 4 4 4 5 5 5 5 6 6 7 6 6 6 6 7 7 6 6 6 7 7 7 7 7 8 8 8 7 8 8 8 8 8 8 8 8 8 8 8 8 8 8 8 8 8 8 7 7 7 6 5 5 4 4 5 4
5 5 5 5 5 5 4 4 4 4 4 4 5 5 5 5 5 6 6 6 6 6 6 6 6 6 7 7 7 7 6 6 7 7 8 7 8 8 8 8 8 8 8 8 8 8 8 8 8 8 8 8 9 9 8 8 8 8 7 7 7 6 6 5 5 5 5 5 4
5 5 5 5 4 4 4 4 4 4 4 5 5 5 5 5 5 6 6 6 6 6 6 6 7 7 7 7 7 7 6 5 6 7 7 7 8 8 8 8 8 7 7 7 7 8 8 8 8 8 8 8 8 8 8 8 8 7 7 6 6 6 6 6 5 5 5 4 4
5 5 5 5 4 4 4 4 4 4 5 5 5 5 5 5 6 6 6 6 6 6 6 6 6 6 7 7 7 7 6 6 6 7 7 7 7 8 8 7 7 7 7 7 7 7 8 8 7 7 7 7 8 8 8 8 7 7 7 7 7 6 6 6 5 5 5 4 4
5 5 5 4 4 4 4 3 4 4 5 5 6 6 6 5 6 6 6 6 6 6 6 6 6 6 6 6 7 7 7 7 7 7 7 7 7 7 7 6 6 7 7 6 6 7 7 7 7 7 7 7 7 8 7 7 7 7 7 7 7 6 6 5 5 5 5 5 4
6 5 5 4 4 4 4 4 5 5 5 6 6 5 5 5 5 6 6 6 6 6 6 5 6 6 7 7 7 7 8 8 8 7 7 7 7 7 7 6 6 6 6 5 6 6 6 6 6 6 6 6 6 6 6 6 6 6 6 7 6 6 6 5 5 5 5 5 4
5 5 5 5 4 4 4 4 5 5 6 5 5 5 5 5 5 6 6 7 7 7 7 7 6 6 6 7 7 7 7 8 8 8 8 7 7 7 6 6 5 5 5 6 9 10 10 8 7 6 6 6 6 6 5 5 5 5 5 6 6 6 5 5 5 4 4 4 4
5 5 5 5 4 4 4 5 5 6 6 5 5 5 5 5 6 6 7 7 7 7 6 6 6 6 6 6 6 6 6 6 6 7 7 7 7 7 6 5 5 4 5 8 12 12 12 12 10 8 6 5 5 5 5 5 5 5 5 5 5 5 5 4 4 4 4 4 4
5 5 5 5 5 5 5 5 5 6 6 6 6 6 5 5 5 6 7 7 6 6 5 5 5 6 5 5 5 5 5 4 5 5 5 6 6 6 5 5 4 5 6 11 13 13 13 13 13 10 8 4 4 4 5 5 5 4 4 4 4 4 4 4 3 3 3 3 3
5 5 5 5 5 5 5 5 6 6 6 6 5 5 5 5 6 6 7 7 6 5 5 4 4 4 4 4 5 6 6 6 6 6 6 6 6 6 5 5 5 6 9 13 13 13 13 13 13 12 10 7 5 4 5 5 4 4 4 4 3 3 3 3 3 3 4 4 4
5 5 5 6 6 5 5 6 6 6 6 5 5 5 6 6 7 7 7 7 6 5 4 4 4 4 4 5 6 6 7 7 6 6 6 6 6 6 6 6 6 8 11 14 14 13 13 13 13 13 12 9 5 4 3 4 4 4 3 3 3 3 3 3 4 4 5 5 5
5 5 5 6 6 6 6 6 6 6 5 5 6 6 6 7 7 7 7 7 6 5 4 3 4 4 5 6 6 6 7 6 6 6 6 7 7 7 6 6 6 8 11 14 13 13 13 13 13 13 12 10 7 5 4 3 3 3 3 3 3 4 4 5 5 5 5 5 5
5 5 6 6 6 6 6 6 6 6 6 6 6 7 7 7 7 7 6 6 5 5 5 5 6 6 6 6 6 7 7 6 6 6 6 7 7 7 7 7 7 9 11 14 14 14 14 14 14 13 13 11 8 5 4 4 4 4 4 4 4 5 5 5 5 5 5 5 5
6 6 6 6 6 6 6 6 6 7 7 7 7 7 7 7 7 6 6 5 5 5 6 6 7 7 7 7 7 7 7 7 6 6 6 6 7 7 7 7 7 9 11 14 14 14 14 15 14 14 13 12 8 6 4 4 4 4 5 5 5 5 5 4 4 4 4 4 4
6 6 6 6 6 6 6 6 7 7 7 7 7 7 7 7 6 6 5 5 5 5 5 6 6 7 7 7 7 7 7 7 6 6 6 6 6 6 7 6 7 9 12 14 15 15 15 15 15 14 13 12 8 6 5 5 4 4 5 5 5 5 4 4 4 3 3 2 2
6 6 6 6 6 6 6 7 7 7 8 8 7 7 7 7 6 6 5 5 4 4 5 4 5 5 5 5 6 6 6 6 6 5 5 5 5 6 6 5 5 9 12 14 14 15 15 15 15 14 13 11 7 5 5 5 4 4 5 5 4 4 4 3 3 2 2 1 1
6 6 6 6 6 6 7 7 8 8 8 8 7 7 7 7 6 6 6 5 5 5 4 4 5 5 5 5 5 6 6 6 5 5 5 5 5 6 6 5 6 9 13 14 14 14 14 14 14 13 12 9 6 5 5 5 5 5 5 5 5 4 4 3 2 1 1 1 1
6 6 6 6 6 6 7 8 8 8 8 8 7 7 6 6 5 5 5 6 5 5 4 4 4 4 5 5 5 5 5 5 5 5 5 5 5 4 4 4 4 8 12 14 13 14 14 14 14 12 10 7 5 4 5 5 5 5 5 5 4 4 4 3 3 2 1 0 1
6 6 7 7 6 7 7 7 8 8 8 8 7 7 6 6 5 5 5 5 5 5 4 4 4 4 4 4 4 4 4 4 4 5 4 4 4 3 3 2 2 6 10 13 13 13 13 13 13 11 9 5 4 4 4 4 4 4 4 4 3 3 3 3 3 2 2 2 1
6 6 7 7 7 7 7 7 8 8 8 8 7 6 6 5 4 4 5 5 5 5 4 4 4 4 4 4 4 4 4 4 4 4 4 3 2 2 2 2 2 3 7 12 12 12 12 12 12 10 8 5 4 4 4 4 4 4 3 3 2 2 2 2 2 3 3 3 4
6 6 7 7 7 7 7 7 8 8 8 8 7 6 5 5 4 4 4 4 4 4 4 4 4 4 4 4 4 4 4 4 4 4 3 2 1 1 2 2 1 1 3 9 11 12 12 12 11 10 8 6 5 4 4 4 3 3 3 3 2 3 3 3 3 3 3 4 7
5 6 6 7 7 7 7 7 7 7 7 7 7 6 6 5 5 5 4 4 4 4 4 4 4 4 4 4 4 4 4 4 4 4 3 2 2 2 2 2 0 1 1 5 10 11 11 11 11 10 8 5 4 4 4 4 3 3 3 2 2 3 3 3 3 3 3 4 6
5 6 6 7 7 7 7 7 7 7 7 7 7 6 5 5 5 5 4 4 4 4 4 4 4 3 3 4 4 4 4 4 3 3 3 2 2 2 2 1 0 2 2 2 8 10 10 10 10 10 8 5 4 3 3 4 3 3 2 2 2 2 2 3 3 3 3 4 4
Wind_Direction
52 56 65 74 79 82 78 69 62 59 60 65 66 67 73 83 80 72 60 50 52 50 45 38 29 21 18 20 34 48 58 62 64 64 63 60 58 58 61 69 73 74 72 68 62 56 52 54 66 69 68 71 70 65 57 53 89 99 96 86 80 81 86 90 82 75 69 66 65
45 47 52 58 62 67 68 61 53 49 48 50 55 57 59 67 68 63 54 46 45 46 47 45 36 33 35 37 45 53 59 62 63 63 61 58 57 56 59 66 72 79 85 89 89 86 78 66 66 65 65 67 71 68 59 47 71 82 82 76 76 77 80 81 76 73 72 69 65
43 44 46 48 49 54 58 58 50 45 45 48 48 51 56 60 61 60 56 50 45 45 47 48 42 39 40 44 50 55 60 63 66 67 67 64 61 60 61 65 68 73 76 79 80 83 85 81 75 69 67 67 71 71 66 55 70 79 81 76 74 74 76 77 74 73 71 68 64
43 44 46 49 50 52 55 58 51 47 46 49 49 53 58 60 63 63 61 57 51 48 46 47 47 45 44 49 53 57 60 63 67 69 70 68 66 66 68 71 69 68 68 70 74 79 84 85 80 73 67 67 70 70 68 67 74 77 78 71 68 69 71 72 67 67 69 69 65
45 45 46 49 51 54 56 55 54 52 49 46 52 56 59 61 63 64 62 59 54 50 48 49 52 52 52 53 57 59 59 59 62 64 65 65 64 64 66 67 68 67 66 68 73 79 84 85 82 77 72 68 65 63 65 71 77 77 74 65 60 60 63 65 64 65 68 69 64
50 48 46 47 50 54 58 57 57 58 57 54 56 58 58 58 58 60 61 62 58 55 52 53 56 57 58 57 59 60 59 57 57 58 60 61 59 58 58 60 61 63 63 62 64 69 75 79 81 80 76 72 66 60 60 68 75 76 71 63 55 53 55 58 60 64 67 68 65
56 54 51 49 50 54 58 58 60 61 61 60 58 59 59 58 60 61 62 63 59 55 53 54 55 57 58 60 61 62 62 61 59 59 59 60 58 56 56 56 57 58 58 56 55 58 63 71 78 79 76 73 68 60 58 67 75 76 74 68 60 56 55 56 59 64 68 68 66
58 56 56 55 56 57 58 58 60 62 63 62 60 59 59 59 60 61 61 59 55 53 52 55 55 57 60 62 64 64 65 65 63 61 60 61 60 59 59 58 58 58 57 56 55 56 60 66 71 73 73 73 72 67 66 72 77 79 78 75 68 62 59 60 62 66 69 70 68
58 56 56 57 59 61 62 61 62 65 67 66 62 60 58 58 58 58 58 57 53 51 51 54 56 59 61 62 63 63 63 64 63 61 60 60 61 61 61 60 60 59 58 57 58 60 64 69 69 70 71 75 76 75 74 76 79 81 81 78 75 71 69 69 70 72 73 73 71
61 57 57 59 59 62 66 66 65 67 68 68 63 60 59 58 57 57 58 61 58 54 51 51 54 58 60 60 59 60 60 62 62 61 60 58 59 60 60 61 60 60 59 58 59 63 67 73 74 74 74 75 77 77 76 77 80 81 82 83 83 81 78 74 72 72 73 74 74
64 61 59 61 60 63 68 69 67 67 67 67 63 61 59 58 57 58 62 66 65 60 55 51 54 58 59 59 58 59 59 61 62 62 60 58 58 59 59 60 60 61 61 59 60 63 68 74 78 78 78 76 76 77 77 78 81 82 84 87 87 84 78 71 69 68 71 74 77
67 64 62 61 61 65 68 71 70 69 68 68 65 63 62 60 58 60 63 67 68 64 59 53 54 57 59 59 59 59 60 61 62 62 62 59 59 60 60 60 60 61 62 61 61 64 69 74 78 79 79 76 76 77 78 80 81 83 83 83 82 79 76 72 68 68 72 77 81
69 67 65 63 64 67 71 73 72 71 69 68 66 66 66 65 62 61 63 65 68 66 62 56 55 56 57 58 59 60 61 62 62 63 63 60 59 59 60 60 60 61 62 62 63 67 71 74 78 79 80 78 77 77 77 79 81 82 81 79 77 77 76 74 72 74 78 83 85
67 66 66 65 66 70 73 74 73 71 69 67 65 67 69 70 67 66 65 66 67 68 65 62 59 58 57 58 60 62 64 65 67 67 67 64 62 62 62 62 62 62 63 65 67 70 73 76 78 80 82 81 78 76 75 75 78 79 79 78 78 78 78 77 77 81 85 88 88
65 63 61 62 67 72 76 76 75 71 67 65 63 62 64 66 68 69 70 70 69 69 69 68 67 65 63 62 64 65 67 69 72 73 73 71 68 67 67 67 66 67 67 68 69 71 73 76 78 81 82 82 80 77 75 75 76 77 78 78 80 81 82 82 82 85 88 92 92
66 62 60 62 69 74 78 78 77 73 68 66 62 59 58 59 62 66 70 73 73 72 71 72 73 71 69 67 67 68 69 70 73 76 77 76 73 71 71 71 72 72 72 72 72 71 72 73 76 79 81 83 82 81 79 78 77 77 78 80 83 85 88 89 88 88 89 92 93
70 67 65 67 72 76 78 78 78 75 71 69 66 64 62 62 62 64 68 72 77 77 76 75 76 77 77 74 71 70 71 71 74 76 79 80 78 76 74 74 74 74 75 75 75 75 75 75 76 79 81 83 83 83 82 81 80 81 81 83 86 88 90 92 90 88 86 86 88
77 75 74 75 78 79 79 79 78 77 74 72 70 69 69 71 72 71 72 73 80 83 85 82 82 82 83 81 78 76 75 76 78 79 81 81 81 79 77 75 75 74 75 76 77 77 78 78 79 80 81 83 84 83 84 84 84 85 86 87 88 89 89 90 90 89 88 88 90
87 84 83 84 85 85 83 81 81 80 79 77 76 75 75 77 80 81 80 77 82 87 90 90 88 86 85 85 83 81 80 81 82 83 82 82 80 79 79 78 77 76 76 76 78 79 80 80 80 82 83 85 85 86 87 88 89 90 90 90 91 91 92 93 94 95 98 101 104
98 95 93 93 92 90 87 84 84 84 84 83 81 79 79 79 83 86 86 85 85 88 91 93 92 90 88 88 88 86 84 83 84 84 83 81 80 80 80 80 79 78 78 79 80 82 83 83 85 86 88 90 91 92 92 93 93 92 92 91 90 91 91 92 93 96 101 107 114
108 108 107 104 101 97 93 90 91 91 91 89 86 84 83 82 84 87 89 90 89 89 90 91 92 93 93 93 92 91 89 86 86 85 84 83 81 81 80 80 80 80 80 81 82 84 85 86 88 90 92 95 96 97 97 97 95 94 92 90 88 86 83 80 80 82 87 96 109
119 118 117 113 109 105 101 97 96 96 96 94 92 90 89 88 89 90 91 91 89 88 87 87 89 92 94 95 95 95 93 89 87 86 85 85 83 82 82 82 82 83 83 82 83 84 85 86 87 89 92 96 98 99 100 100 98 96 94 91 87 82 75 68 65 63 62 64 77
127 125 123 120 117 113 109 105 102 100 99 99 98 97 95 95 96 96 95 93 91 89 87 87 88 91 93 95 96 97 97 94 91 89 88 89 89 88 87 85 86 87 88 87 87 88 90 91 90 90 91 95 99 101 102 102 102 100 98 96 91 85 76 66 59 54 49 43 43
129 128 127 126 123 122 119 114 108 105 103 103 103 102 102 101 101 100 98 95 93 92 92 92 92 93 94 96 97 99 100 100 100 98 98 98 100 101 100 99 99 100 102 103 105 105 104 101 99 97 97 99 101 102 102 102 103 103 103 101 97 91 82 71 61 55 49 41 32
126 127 127 127 125 124 119 116 112 110 108 108 107 106 105 104 104 103 101 99 97 97 98 98 99 99 99 100 101 103 105 108 110 113 115 116 119 121 122 121 122 122 121 119 118 116 114 113 111 109 107 107 107 106 104 101 102 103 104 104 102 98 91 79 68 60 53 45 35
128 127 128 128 124 120 117 116 114 114 113 113 111 109 108 108 107 106 105 104 103 103 104 106 106 107 107 106 108 110 112 116 120 124 127 130 132 133 132 129 127 125 122 121 120 119 119 118 118 116 114 112 113 112 109 103 99 98 98 100 102 102 99 91 78 66 58 49 40
135 133 131 129 125 121 118 118 116 116 115 115 113 113 113 113 111 108 106 103 102 102 102 104 105 107 106 103 104 106 107 109 111 113 115 118 119 118 117 114 115 115 116 117 117 118 120 121 121 120 117 111 111 111 109 104 97 92 90 90 93 98 103 103 93 81 66 51 43
140 137 134 130 126 124 122 119 118 117 116 115 115 115 113 111 108 104 101 98 96 94 94 95 97 98 96 92 92 92 93 92 91 92 93 95 96 98 99 102 106 111 113 114 115 116 119 121 122 122 121 116 110 106 105 102 98 94 90 88 89 93 98 100 95 85 73 61 52
141 138 135 132 129 126 124 121 119 118 116 113 111 109 107 104 102 100 98 95 92 91 91 94 94 92 89 88 88 88 87 87 87 88 89 89 89 90 92 96 101 107 111 112 114 116 118 121 122 122 120 115 102 89 87 92 95 95 93 88 85 82 80 77 73 70 65 60 55
140 139 136 134 131 129 126 124 121 117 113 108 104 102 100 99 98 97 96 94 92 91 91 93 92 90 89 89 89 88 87 86 86 87 87 88 88 89 91 93 98 104 109 111 112 114 116 118 119 118 116 108 93 81 75 80 86 89 88 81 72 66 63 61 60 58 56 53 52
141 141 139 136 133 131 129 125 120 114 109 104 101 99 97 97 96 96 96 95 94 92 91 89 89 89 89 88 88 88 88 87 84 83 84 86 88 89 90 92 95 102 107 110 111 112 113 114 115 115 112 107 100 93 90 91 91 88 82 73 65 60 58 58 56 54 52 50 52
143 142 140 138 136 133 131 125 118 112 107 103 101 99 98 97 97 97 97 97 95 93 92 90 91 91 90 88 88 88 89 89 87 86 86 87 89 91 92 93 97 102 106 109 110 111 112 113 114 113 111 108 104 100 97 96 91 85 78 70 64 60 58 58 57 54 54 53 58
145 144 141 139 137 134 130 123 117 112 108 105 103 102 101 100 98 96 95 95 93 92 91 91 93 94 94 93 92 92 91 91 90 90 90 90 93 95 96 96 99 104 108 110 111 112 113 113 113 112 110 107 104 99 94 91 86 80 74 68 63 60 60 61 62 60 59 57 65
145 144 142 140 137 133 128 123 118 115 112 109 107 106 105 103 100 97 95 93 91 88 86 85 87 90 91 92 92 93 92 90 86 85 85 87 91 95 97 97 101 108 111 112 113 113 113 113 111 110 107 102 98 92 87 83 78 73 70 65 57 52 51 55 61 68 76 85 96
146 144 141 139 135 131 128 125 122 119 116 113 111 109 107 105 104 102 101 99 93 88 82 79 81 82 83 83 86 89 90 89 83 79 77 78 84 90 94 97 102 111 114 113 114 114 113 112 111 108 104 97 91 84 81 79 75 69 64 58 48 38 31 29 30 44 94 149 160
146 144 141 137 133 131 129 127 125 122 119 116 114 112 109 106 104 104 104 102 97 91 86 84 83 83 83 81 81 82 83 83 80 74 69 69 75 82 86 87 97 111 116 115 116 116 115 114 112 109 104 95 87 80 77 76 72 64 58 53 42 28 17 11 4 356 340 220 193
146 143 139 136 133 132 130 129 126 123 120 118 116 114 110 106 104 104 106 106 102 99 96 91 90 88 86 82 74 65 58 59 72 74 70 66 71 77 81 72 79 110 118 118 119 119 118 118 115 112 107 97 88 81 77 72 65 58 52 47 33 15 2 356 352 349 341 323 249
146 143 139 136 134 133 131 129 127 124 122 119 117 115 112 108 105 106 107 110 110 111 108 102 96 93 90 86 75 58 41 35 57 69 72 64 67 83 92 83 71 104 117 120 121 121 120 120 118 115 111 102 95 89 82 75 65 55 48 38 18 358 347 345 349 351 350 346 354
146 143 139 136 134 133 131 129 128 126 123 121 118 116 113 109 108 108 109 110 113 116 116 112 105 99 94 92 85 69 50 37 44 53 59 53 41 86 103 98 65 51 102 123 123 122 120 120 119 116 111 104 102 98 92 86 74 61 46 28 11 356 347 344 350 355 355 354 5
140 138 136 134 133 132 131 129 128 127 125 123 121 118 115 112 111 109 108 108 113 117 118 113 105 100 99 100 97 87 70 48 38 37 38 29 11 48 82 101 57 321 335 136 126 123 120 119 119 116 111 104 106 105 101 95 85 70 49 26 16 3 351 343 348 353 355 353 359
133 132 131 131 132 131 131 130 129 127 125 124 123 121 118 113 111 110 111 114 118 119 117 108 98 93 95 102 102 96 84 63 40 26 19 16 12 27 50 84 4 302 286 172 130 125 122 121 123 122 119 114 112 108 103 97 91 82 64 29 19 10 359 347 349 352 354 351 349